Regional Weather Roundup
Issued by NWS Bismarck, ND

Home | Current Version | Previous Version | Text Only | Print | Product List | Glossary On
Versions: 1 2 3 4 5 6 7 8 9 10 11 12 13 14 15 16 17 18 19 20 21 22 23 24 25 26 27 28 29 30 31 32 33 34 35 36 37 38 39 40 41 42 43 44 45 46 47 48 49 50
000
ASUS43 KBIS 270920
RWRBIS

NWR BROADCAST TEXT
NATIONAL WEATHER SERVICE BISMARCK ND
300 AM CST SAT DEC 27 2014

NOTE: "FAIR" INDICATES FEW OR NO CLOUDS BELOW 12,000 FEET WITH NO
SIGNIFICANT WEATHER AND/OR OBSTRUCTIONS TO VISIBILITY.


CITY           SKY/WX    TMP DP  RH WIND       PRES   REMARKS
WILLISTON      PTCLDY    17  13  84 W10       30.09R WCI   5
MINOT          CLOUDY    19  14  81 S8        30.04F WCI   9
MINOT AFB      FLURRIES  17  17  98 SW5       30.04F WCI  10
BISMARCK       PTCLDY     0  -3  87 SE3       30.14F
DICKINSON      CLOUDY    22  17  81 W12       30.05S WCI  10
GARRISON         N/A     20  16  84 SW9       30.06F WCI   9
HETTINGER ARPT CLOUDY    17  12  80 W7        30.09F WCI   8
JAMESTOWN      CLEAR      2  -2  83 W6        30.14S WCI  -9
BEACH          CLOUDY    21  19  93 W8        30.08S WCI  12
CARRINGTON     CLOUDY     7   7 100 MISG      30.12R
CROSBY         CLOUDY    19  14  79 W10       30.06F WCI   8
HARVEY         CLOUDY    12   9  85 S6        30.10F WCI   3
HAZEN          CLOUDY    14  10  85 W5        30.09F WCI   6
LINTON         FAIR      -4  -8  84 E3        30.16S
MANDAN         CLOUDY     7   3  85 S9        30.12S WCI  -7
OAKES            N/A      3   1  92 W6        30.17F WCI  -8
RUGBY          CLOUDY     9   7  92 S6        30.08F WCI  -1
STANLEY        FLURRIES  19  19 100 W9        30.03S WCI   9
TIOGA          CLOUDY    16  16 100 W9        30.07R WCI   4
WATFORD CITY   FAIR      19  16  86 W10       30.06R WCI   8
$$

CITY           SKY/WX    TMP DP  RH WIND       PRES   REMARKS
GRAND FORKS    CLOUDY     2  -1  88 W5        30.20S WCI  -8
GRAND FORKS AF CLEAR     -2  -4  90 CALM      30.19F
DEVILS LAKE    CLOUDY     9   1  72 SW5       30.10F WCI   0
FARGO          CLEAR      4   0  83 NW7       30.20S WCI  -8
CANDO          CLOUDY     7   3  85 SW6       30.11S WCI  -3
CAVALIER       FAIR      -4  -8  84 SW6       30.17F WCI -16
GWINNER        SUNNY      7   3  85 N6        30.18F WCI  -3
LANGDON        CLOUDY    -2  -8  78 S9        30.08F WCI -18
ROLLA          CLOUDY     5   0  78 SW10      30.05F WCI -10
WALHALLA         N/A     -6  -9  84 S3        30.16F
$$

CITY           SKY/WX    TMP DP  RH WIND       PRES   REMARKS
ABERDEEN       PTCLDY     7   3  84 NW6       30.20R WCI  -3
MOBRIDGE       CLOUDY     0  -4  83 N3        30.14S
BUFFALO          N/A     17  13  84 W9        30.02R WCI   6
RAPID CITY     CLOUDY     9   5  84 W6        30.12S WCI  -1
GLASGOW        CLEAR     12   7  80 SE7       30.06F WCI   1
SIDNEY         CLEAR     18  12  79 W9        30.12R WCI   6
WOLF POINT     CLEAR      9   5  84 SW7       30.10F WCI  -2
GLENDIVE       CLEAR     16  10  79 W8        30.11S WCI   5
MILES CITY     PTCLDY    19  14  81 W10       30.12S WCI   7
BAKER          CLOUDY    23  19  85 W12       30.09R WCI  12
$$

CITY           SKY/WX    TMP DP  RH WIND       PRES   REMARKS
BILLINGS       PTCLDY    16  11  80 SW16      30.09S WCI   1
GREAT FALLS    PTCLDY    16  10  77 S13       30.00F WCI   2
REGINA         CLOUDY    10   9  92 S6        30.00  WCI   1
ESTEVAN        CLOUDY    18  12  79 W10       30.04S WCI   6
$$



USA.gov is the U.S. government's official web portal to all federal, state and local government web resources and services.